Theta_e
346 348 349 349 349 348 350 352 352 352 352 352 351 350 350 350 349 348 347 346 344 336 334 336 335 335 341 336 341 340 341 341 339 339 338 340 339 340 340 342 342 342 343 343 343 343 342 342 341 341 343 345 346 331 327 327 329 334 335 336 341 334
346 348 349 349 348 348 349 350 348 349 349 349 350 349 347 345 348 340 346 343 336 339 333 331 333 343 337 338 339 342 343 341 339 340 339 340 340 340 340 341 342 343 343 343 344 331 331 334 336 337 340 341 333 328 327 327 328 329 334 334 339 337
345 347 348 348 347 347 348 349 348 347 348 349 349 348 343 346 340 337 338 338 340 336 334 335 336 340 340 344 340 344 344 342 341 341 340 339 340 341 340 341 342 343 343 342 330 324 323 322 323 333 334 330 330 331 330 328 327 328 334 334 338 341
345 347 346 346 347 348 348 349 348 347 345 344 344 344 340 341 339 336 338 336 337 336 336 333 344 345 346 339 336 344 344 343 343 343 342 340 341 341 342 342 342 341 338 333 323 324 324 321 322 323 325 326 328 330 331 330 329 330 330 336 339 341
346 346 346 346 346 347 348 348 348 347 346 343 343 341 340 338 338 337 336 337 336 337 335 332 333 333 336 334 332 331 332 332 331 328 341 331 330 331 330 327 328 332 326 326 326 324 323 323 324 323 324 325 328 330 332 331 330 330 331 331 337 342
345 345 346 346 346 347 348 347 346 346 346 345 344 342 341 339 338 338 337 337 338 336 334 333 332 332 334 331 332 331 332 330 330 332 335 332 331 330 330 330 331 332 330 326 325 325 323 328 325 324 323 324 327 330 331 330 330 332 332 331 334 343
343 344 344 346 346 346 346 347 346 346 345 345 343 342 341 339 339 337 337 337 337 335 335 334 331 331 332 331 330 331 333 333 333 333 336 334 334 334 332 332 331 332 329 327 325 324 323 323 322 323 323 324 325 329 331 331 331 331 332 332 335 342
341 343 343 345 345 345 345 345 345 345 345 346 343 341 340 340 339 337 338 339 340 334 335 335 335 332 334 330 332 331 331 333 335 333 334 335 335 334 332 333 333 333 332 330 327 326 324 324 322 322 323 324 325 329 332 332 333 333 333 332 333 340
339 340 341 343 343 344 344 344 344 344 343 346 342 340 338 337 337 337 338 339 340 336 334 335 334 333 331 332 334 334 334 334 333 334 334 335 336 335 332 331 333 333 331 330 327 325 325 326 326 328 327 328 330 331 331 331 331 332 331 331 331 335
337 338 339 342 342 342 342 342 343 344 343 345 340 339 336 336 336 336 338 339 339 336 333 332 331 330 332 335 336 336 335 333 333 332 334 334 334 334 333 332 332 333 333 331 329 330 332 332 334 334 331 330 330 330 328 326 328 329 331 331 331 333
335 338 336 338 338 339 341 341 342 343 342 342 341 340 338 336 335 336 338 336 336 336 334 333 332 331 333 337 337 335 334 335 335 333 334 335 334 335 334 333 334 332 331 330 333 333 334 333 332 334 333 333 332 331 329 328 329 330 329 331 331 331
335 336 336 335 338 336 337 338 339 339 339 340 340 337 337 337 336 335 335 333 334 335 337 333 332 333 335 335 334 333 333 332 331 331 333 334 334 337 336 335 335 334 333 332 333 333 331 330 331 333 331 333 333 331 329 329 329 331 330 330 330 331
335 336 335 335 336 336 335 336 337 337 337 338 338 338 336 335 335 335 333 330 333 336 337 335 335 336 338 333 332 331 331 331 330 332 333 334 336 336 332 332 331 333 332 330 331 330 332 330 329 332 331 333 332 331 331 329 329 328 329 330 330 330
335 335 335 335 336 336 334 334 336 335 336 335 335 335 336 335 334 334 333 330 334 337 336 335 336 334 333 331 331 332 331 330 330 331 332 333 333 334 333 331 331 330 336 329 329 328 329 331 330 329 329 330 329 330 329 329 329 330 330 330 330 329
337 334 336 334 335 334 333 333 333 333 333 334 334 334 333 334 332 333 332 330 334 336 335 336 335 335 333 331 330 331 330 331 331 332 333 332 332 332 330 331 331 331 329 327 326 329 328 328 327 329 330 330 330 330 327 329 329 330 330 330 328 330
336 334 335 334 334 334 333 332 332 336 332 332 334 333 332 333 333 332 333 334 334 336 334 334 334 334 333 331 331 331 331 333 334 333 332 331 331 333 330 332 330 330 329 327 328 328 327 327 328 329 329 329 329 329 329 328 329 330 330 330 331 330
335 335 334 334 334 333 332 332 331 334 332 332 333 333 331 331 332 333 332 333 333 336 333 334 334 336 335 333 333 332 333 334 335 332 331 330 330 333 331 334 328 330 327 327 325 326 328 326 328 329 329 329 330 330 329 329 329 329 331 328 330 330
335 336 335 334 333 332 332 332 332 332 334 332 331 331 331 332 332 332 333 333 334 335 335 334 334 334 335 338 336 333 333 333 333 331 330 330 332 331 329 328 327 327 328 326 325 324 326 327 328 329 328 328 329 328 328 328 328 332 328 330 329 329
335 333 332 332 332 332 332 331 331 331 330 329 330 330 331 332 332 332 333 334 335 335 335 333 334 336 334 334 332 332 331 333 333 332 331 332 332 329 328 326 328 327 327 326 326 325 327 327 328 327 327 327 327 327 327 325 326 325 326 328 330 333
333 332 332 333 332 331 331 330 329 328 328 328 329 331 329 331 330 331 334 335 334 333 334 333 332 333 333 332 330 331 331 332 333 333 331 332 329 326 327 326 326 327 325 325 325 325 325 325 322 321 323 325 325 324 324 325 322 323 326 326 328 328
332 331 332 331 330 330 329 328 328 328 327 325 329 328 330 329 331 332 332 333 334 334 334 334 333 332 331 335 331 331 330 331 332 333 331 329 329 328 328 328 327 326 325 323 325 324 328 322 322 322 318 318 320 321 322 322 321 325 327 327 326 326
330 331 332 332 331 331 330 330 328 326 326 328 329 328 329 331 331 333 333 335 335 333 332 333 334 333 333 330 329 331 330 331 331 330 332 331 330 331 327 327 326 325 323 324 325 325 328 322 318 317 317 319 315 320 319 317 320 327 327 327 326 326
330 330 331 332 331 330 328 328 328 326 329 329 332 332 331 332 333 331 332 334 333 331 331 332 333 333 331 331 330 329 329 329 329 331 330 329 329 329 328 327 324 325 323 321 322 326 326 323 320 318 316 313 308 316 317 315 314 325 326 325 323 325
330 330 331 332 331 330 330 330 331 331 332 332 331 334 331 330 330 331 332 333 331 331 331 329 330 331 329 329 329 329 329 330 329 330 327 326 326 327 327 326 326 326 320 319 320 322 324 323 322 319 314 314 312 309 311 308 314 322 318 321 323 324
331 330 330 332 331 332 332 331 332 332 333 332 331 328 326 325 327 331 330 331 332 332 331 331 331 331 334 329 329 329 328 327 326 326 326 325 324 325 325 324 324 324 323 319 318 317 322 324 323 324 318 311 311 307 307 312 318 317 316 324 323 322
330 330 330 331 332 332 331 330 329 328 327 327 326 326 325 326 326 327 329 332 332 331 332 332 331 331 330 329 326 326 325 325 325 325 325 323 323 323 324 323 323 321 322 321 319 319 318 322 321 323 322 318 317 316 318 317 313 313 316 317 317 319
330 330 331 331 332 332 330 330 329 328 328 328 327 325 324 325 327 328 330 329 328 329 330 329 327 327 326 326 324 324 323 323 323 323 325 322 322 321 322 323 323 322 321 321 321 317 317 317 316 319 321 320 321 320 320 317 314 318 314 316 317 319
330 330 331 332 331 331 330 329 328 328 328 328 327 326 326 327 328 330 329 329 329 328 325 324 324 323 324 324 323 322 322 322 322 323 323 321 320 320 321 322 322 321 321 321 319 317 315 316 314 315 319 317 317 318 317 316 319 317 316 313 314 315
330 330 331 331 331 330 331 330 329 328 327 327 327 327 329 330 328 329 329 329 325 322 322 322 322 321 321 322 323 321 321 320 320 320 322 320 320 320 319 318 318 318 317 318 319 317 316 314 314 313 313 314 314 314 315 315 316 316 314 312 312 312
330 330 331 331 330 329 330 330 328 328 327 327 329 328 328 327 327 328 328 323 320 320 320 319 319 320 320 320 320 320 319 319 319 321 321 318 319 318 318 317 317 317 316 316 316 316 315 314 314 314 314 313 312 312 313 313 314 316 315 315 312 312
330 331 331 331 330 329 329 329 329 328 328 327 328 327 326 326 327 327 323 320 319 318 318 318 318 318 318 318 319 321 318 318 319 321 319 317 317 317 316 316 316 316 315 314 314 314 314 314 313 313 313 312 313 314 313 312 313 314 314 313 312 313
330 331 332 332 331 330 330 329 329 329 328 328 327 327 325 325 327 325 321 318 317 317 316 317 317 317 318 318 318 316 317 316 317 315 315 316 316 316 316 315 315 315 314 314 314 314 313 312 312 312 312 313 312 313 313 313 314 315 314 313 313 312
330 331 332 332 330 330 330 329 329 329 328 328 327 327 326 327 326 322 318 316 315 315 315 315 316 316 316 316 316 314 315 314 314 315 315 315 315 315 315 314 314 313 313 312 312 312 312 311 312 311 311 311 311 311 310 312 312 312 312 312 312 309
331 332 331 331 330 330 330 329 329 329 328 328 327 327 327 326 323 320 318 316 315 314 313 313 314 314 314 315 315 315 314 313 314 315 316 315 314 314 314 314 313 313 312 312 312 312 312 312 312 311 311 309 308 308 307 308 309 309 308 308 307 307
331 331 331 329 329 329 328 328 328 328 327 326 326 324 322 322 319 317 316 315 314 314 314 313 314 314 315 314 314 314 314 312 313 313 313 313 314 313 313 313 313 313 313 312 312 313 312 312 311 309 308 307 306 304 304 304 305 305 306 306 306 306
331 330 330 330 329 328 327 326 326 325 325 324 322 320 319 319 317 316 315 314 313 313 313 313 314 314 313 313 312 312 312 311 312 312 312 312 312 312 311 311 310 311 312 315 312 312 312 310 308 306 305 305 304 303 303 303 303 303 303 304 305 305
330 330 330 329 327 325 324 323 322 322 321 320 319 318 316 316 315 316 315 314 313 313 314 314 314 314 313 312 312 311 310 310 310 310 310 311 311 311 311 311 311 310 310 311 312 311 311 309 306 304 304 303 302 302 302 302 301 301 301 301 302 303
Wind_Speed
7 8 7 7 6 6 9 14 12 14 14 12 12 12 11 10 8 8 7 7 6 3 3 2 2 1 4 1 2 2 2 2 2 3 3 4 4 3 3 3 3 4 5 5 5 6 7 6 6 6 6 5 3 2 1 1 0 2 4 5 5 5
7 8 7 5 4 4 5 8 6 6 6 8 9 9 6 4 6 3 7 5 3 2 2 2 1 3 0 1 1 3 3 2 2 2 3 3 3 3 3 4 5 5 6 6 6 4 5 8 9 8 9 9 3 1 1 0 1 1 3 4 5 6
8 7 7 6 4 4 5 5 5 4 4 6 6 5 3 4 3 3 3 3 3 2 2 1 1 1 1 2 2 4 4 3 3 3 3 3 3 4 4 5 6 6 6 6 4 3 4 4 6 8 7 6 5 3 0 0 1 1 3 3 4 7
8 9 7 5 5 4 5 5 4 4 4 4 4 4 3 3 3 3 3 3 3 2 2 1 3 5 3 1 1 4 4 4 4 4 4 3 4 5 5 6 6 6 4 3 3 4 5 4 4 4 4 5 5 4 3 1 2 3 3 4 5 9
8 9 8 6 6 5 5 5 4 4 4 3 4 4 4 3 3 3 3 3 2 1 1 1 0 1 2 0 0 2 2 2 2 3 4 2 2 3 3 4 3 3 3 2 3 3 2 5 4 4 5 5 5 4 4 3 3 3 4 4 5 10
8 8 7 7 6 6 7 5 5 5 4 3 4 4 4 4 4 3 3 2 2 1 1 1 0 1 1 0 0 1 2 2 3 3 2 3 3 2 3 4 3 4 4 3 3 3 3 3 4 5 5 5 4 4 5 5 3 4 4 4 5 10
8 8 8 6 6 6 5 5 5 5 5 3 4 4 4 3 3 3 2 2 2 2 1 2 2 3 2 1 2 2 2 2 2 3 3 4 4 3 3 4 4 4 3 3 3 3 3 3 3 4 4 4 4 4 5 5 3 5 5 5 5 11
7 8 7 7 7 6 6 6 6 7 5 5 5 4 4 4 3 3 3 3 2 2 3 2 3 3 3 2 2 2 1 2 3 2 2 2 4 5 5 4 4 4 4 3 4 4 3 3 3 3 3 4 4 4 5 5 4 4 5 5 4 8
7 8 6 7 7 5 5 5 6 5 5 6 4 4 4 3 3 2 2 3 3 4 2 3 3 3 1 2 2 2 2 3 3 3 1 3 3 4 4 4 4 4 4 4 4 4 3 3 3 3 3 4 4 4 4 4 4 4 4 5 5 6
8 8 7 7 5 5 5 5 5 6 5 6 5 4 3 3 3 4 4 4 3 3 4 3 3 2 4 4 3 1 2 2 3 3 3 4 3 4 4 4 4 3 3 4 3 4 2 3 3 3 3 4 4 5 5 4 4 4 4 3 4 4
5 5 5 5 4 4 5 5 5 5 5 6 4 4 3 3 4 4 5 3 3 3 3 4 4 3 2 2 2 0 1 1 1 2 2 3 2 4 4 4 4 3 3 3 4 4 2 3 3 3 3 3 5 5 5 4 3 3 2 4 4 4
7 6 6 5 5 6 6 6 6 5 5 6 4 4 4 4 4 5 3 3 3 4 4 4 4 3 3 2 1 1 1 1 2 3 2 3 3 3 3 3 3 2 3 2 4 3 2 2 3 4 3 3 3 4 5 5 3 3 3 3 3 3
11 10 10 10 9 8 7 7 6 6 6 5 5 4 4 5 5 4 3 3 4 4 4 5 5 5 5 4 3 1 1 2 2 3 3 3 3 2 1 1 1 1 2 1 0 2 1 1 2 4 4 4 3 4 4 4 3 2 3 3 3 3
11 12 12 10 9 8 7 6 6 6 5 5 5 5 5 5 5 5 3 3 3 4 4 4 5 4 4 4 1 2 3 3 2 2 3 3 3 2 3 2 2 2 3 2 3 2 2 4 5 3 3 3 3 4 4 3 4 5 3 4 3 3
10 9 9 9 9 8 6 6 6 5 5 4 4 5 5 5 5 5 3 3 3 3 3 4 3 5 4 4 1 1 1 1 2 2 3 3 3 3 2 3 2 3 3 2 2 2 2 4 3 5 5 4 5 5 3 4 3 3 3 3 3 3
8 9 9 9 7 7 6 6 5 5 4 4 5 5 5 6 4 4 5 5 4 3 4 4 4 4 5 2 0 1 3 3 2 2 3 4 2 4 2 3 2 2 1 3 3 4 3 4 4 5 5 5 5 3 4 3 4 3 3 3 4 4
10 8 8 8 8 6 6 6 5 4 5 4 5 6 5 3 4 5 4 4 4 4 4 4 3 3 4 2 1 1 2 3 3 2 3 3 3 4 3 3 2 1 1 1 2 3 5 3 4 5 5 5 5 5 5 5 4 4 3 3 3 3
9 10 10 10 9 7 6 5 4 4 3 5 4 5 5 5 5 4 4 4 4 4 4 4 3 3 4 2 2 3 2 3 4 3 2 2 4 3 3 2 1 1 1 0 2 3 4 4 4 4 5 5 6 5 5 4 4 3 4 4 3 3
10 7 6 8 7 7 6 5 4 4 4 3 3 3 4 5 4 4 4 4 4 4 4 4 3 3 4 3 2 1 1 2 2 3 3 3 3 3 1 0 0 1 1 2 2 2 3 4 4 4 4 6 5 5 5 3 2 3 4 4 4 3
6 8 7 7 7 7 7 7 7 4 4 2 3 3 3 3 3 3 3 4 4 4 3 4 3 3 4 3 2 0 1 2 2 2 3 3 3 2 1 0 0 1 3 2 1 1 2 3 2 3 3 5 5 4 5 3 2 3 4 4 4 3
7 8 8 8 8 9 8 6 5 7 5 3 4 3 3 2 3 3 3 3 4 4 4 3 3 3 4 2 1 0 1 2 1 2 1 2 3 2 1 0 1 1 1 2 2 3 4 1 4 5 3 3 5 4 3 3 3 6 7 5 4 4
6 8 9 9 9 8 8 8 8 6 4 3 3 3 2 2 4 4 4 4 4 4 4 4 3 3 3 2 0 1 1 1 2 2 3 2 2 2 2 2 1 1 1 1 0 2 5 2 4 3 4 7 5 6 3 3 3 8 8 6 6 5
8 7 7 8 8 7 4 4 5 5 6 4 2 2 3 3 4 5 4 4 4 4 4 3 2 2 3 2 1 1 2 2 1 1 2 3 3 5 5 3 2 2 0 2 1 2 5 3 1 2 1 1 4 7 6 6 3 8 7 6 5 5
8 7 7 6 5 5 7 7 8 8 6 4 3 3 4 4 4 5 5 4 3 3 3 3 2 3 3 3 2 0 2 1 4 2 2 4 4 5 5 5 3 3 2 3 3 3 3 4 3 4 4 1 1 1 4 2 4 8 2 4 4 6
7 7 5 5 6 8 9 10 10 9 7 7 6 4 4 4 4 3 4 4 3 3 3 2 2 3 3 2 2 2 3 4 4 3 3 5 5 4 3 3 3 4 5 1 3 2 4 5 6 5 2 2 4 4 1 4 7 6 3 8 6 5
4 5 6 6 7 7 8 10 9 8 6 4 4 4 4 5 4 4 4 3 3 3 3 2 4 5 6 6 6 4 3 4 5 5 5 4 3 4 5 5 4 3 5 3 4 5 4 4 4 7 6 2 1 1 4 3 3 6 3 3 1 3
7 5 5 6 6 7 7 7 9 8 8 7 6 1 1 2 4 4 4 4 3 4 3 5 6 7 7 6 5 4 4 5 5 4 3 4 6 5 4 4 4 6 4 3 4 5 5 4 3 5 6 4 4 2 0 2 2 3 9 3 1 4
4 4 3 6 6 6 8 7 7 7 7 7 7 6 4 4 4 4 5 4 4 4 5 6 7 6 6 5 5 5 4 4 5 4 4 5 5 3 4 5 5 5 6 6 6 6 4 6 4 3 4 6 5 4 4 3 3 4 5 9 9 3
6 6 5 7 7 6 7 7 8 8 7 4 5 5 5 5 5 4 6 5 6 6 6 6 6 6 6 5 5 5 5 5 5 4 4 5 5 5 6 6 6 7 7 7 6 4 6 5 5 5 4 5 4 5 4 3 3 5 2 6 9 5
8 7 7 7 6 6 6 7 8 8 9 7 6 5 5 6 6 5 6 6 5 6 5 5 5 5 6 6 6 5 6 6 5 4 4 4 5 6 6 7 6 6 6 7 5 6 6 5 5 5 4 3 4 4 3 3 4 5 2 3 7 10
9 7 7 6 6 7 6 7 8 8 9 10 8 8 7 6 6 6 6 6 5 5 4 5 5 6 6 6 6 6 6 5 4 4 5 6 6 5 5 6 5 6 7 7 6 6 7 5 5 5 5 5 6 6 5 5 6 5 5 5 7 7
9 9 8 8 8 8 7 7 7 9 9 9 10 8 9 9 7 8 7 7 5 5 5 5 5 6 6 6 6 5 5 5 5 5 6 5 5 5 5 5 6 6 6 6 6 6 6 6 5 6 6 5 6 5 6 6 6 5 5 6 6 7
15 12 10 9 9 8 8 8 8 9 8 8 8 7 8 8 7 7 7 7 6 6 4 5 5 6 5 5 5 6 5 5 5 5 5 5 5 5 5 6 6 6 6 6 6 6 6 5 6 6 5 4 5 6 6 5 5 5 5 6 5 6
7 8 8 8 8 8 8 8 9 9 8 8 8 8 6 8 7 6 7 6 6 5 6 5 5 6 4 5 5 5 5 5 4 5 5 5 5 4 5 6 5 6 6 5 6 6 5 5 6 6 5 6 7 7 6 6 6 5 6 6 6 6
7 7 8 7 6 8 7 8 8 8 8 7 7 7 6 7 8 8 6 7 5 5 6 5 6 4 4 5 5 6 5 5 5 5 5 5 5 5 5 5 5 5 5 4 5 6 6 6 7 7 7 6 6 7 6 6 6 6 6 5 5 6
7 8 8 8 7 7 8 8 9 9 9 8 8 8 7 7 7 7 7 7 6 5 5 5 5 5 5 6 7 6 5 5 5 5 4 4 4 5 4 5 4 4 5 4 5 6 6 7 8 8 7 6 7 6 6 6 6 6 6 6 6 5
9 8 8 8 8 7 8 9 8 9 9 9 10 10 9 10 9 7 7 7 6 5 5 5 6 5 6 7 7 6 6 6 5 4 4 4 4 4 4 4 4 5 5 4 5 6 7 8 7 7 7 7 6 6 6 5 5 6 5 5 5 5
Wind_Direction
131 127 125 130 131 131 149 148 148 147 148 148 149 150 148 145 138 136 131 135 130 108 118 143 137 122 170 168 193 205 206 208 222 210 217 219 229 239 254 270 287 289 290 297 311 320 327 326 324 325 325 335 63 117 184 260 325 215 181 188 188 194
128 130 130 126 122 132 146 143 142 148 148 154 154 148 139 135 138 116 142 137 128 150 139 123 115 166 117 200 243 236 251 244 246 255 237 246 246 264 274 282 288 292 305 315 323 342 334 331 335 340 342 344 33 112 158 179 314 222 218 207 195 204
133 134 130 119 121 127 122 132 138 139 150 153 155 135 121 131 101 130 125 141 158 157 142 123 145 196 188 245 261 265 253 262 269 265 267 268 272 281 288 292 297 307 322 340 358 336 333 328 327 335 342 345 338 352 6 167 239 241 235 231 221 216
139 136 134 127 131 130 132 139 143 140 140 131 120 120 125 122 139 143 154 158 157 156 137 108 206 214 220 200 306 300 278 280 288 297 285 324 332 335 320 326 325 324 344 343 333 328 323 315 312 315 321 318 312 308 311 292 204 227 227 229 223 227
142 137 135 137 145 143 141 141 145 150 141 131 124 134 135 141 155 162 167 169 142 148 110 107 23 340 16 85 19 329 323 340 352 324 326 331 310 308 330 313 316 313 309 305 304 293 295 306 310 311 305 299 299 304 302 282 252 225 225 222 226 217
140 134 139 147 153 151 144 151 154 159 153 142 146 152 150 160 165 173 173 159 131 117 105 128 151 284 334 106 205 260 272 287 311 294 307 303 287 294 298 297 301 301 302 296 280 276 263 270 290 293 291 290 284 281 273 270 251 257 239 227 231 220
139 135 135 140 146 149 156 152 152 161 159 157 157 162 173 171 180 170 166 159 160 174 179 181 220 232 238 175 215 225 244 254 263 282 306 306 303 295 289 289 289 282 283 286 289 283 273 255 246 275 284 284 279 269 266 267 250 250 253 235 232 222
136 141 144 143 150 156 153 150 155 170 169 180 163 185 185 184 170 176 178 181 189 176 197 217 230 232 232 176 224 234 241 267 261 269 291 271 283 295 296 287 289 297 302 306 309 303 304 299 285 255 285 292 289 275 272 270 267 255 251 247 235 225
147 150 150 149 163 154 147 144 163 176 162 192 176 192 192 164 174 183 201 196 192 190 200 222 233 238 200 226 229 218 225 241 255 261 239 261 256 276 279 275 276 281 291 291 294 292 299 295 279 275 261 286 286 283 274 266 257 252 245 241 235 238
160 158 155 155 155 147 152 160 175 182 168 189 188 197 170 176 184 181 208 214 206 183 188 208 226 203 185 224 226 213 237 236 222 233 216 242 235 242 255 261 252 252 263 260 268 264 257 276 294 290 278 274 282 275 275 268 268 251 241 239 238 242
153 147 137 141 136 144 156 178 185 189 173 192 192 186 180 174 185 202 212 205 209 195 184 199 204 200 197 198 223 319 287 313 285 253 226 249 248 228 243 246 240 247 254 274 270 276 283 281 286 285 271 273 272 277 274 271 261 261 249 234 233 234
154 148 148 145 153 158 176 186 192 191 187 196 177 187 183 175 207 214 210 183 195 202 198 199 178 180 165 139 161 153 258 261 254 282 265 252 253 240 242 251 256 243 231 221 254 259 249 236 278 294 300 283 278 278 281 271 250 245 258 266 252 253
162 163 163 167 172 173 178 186 189 193 199 185 181 179 183 193 208 216 217 173 183 188 185 177 177 171 162 157 154 143 283 253 239 251 269 276 301 315 320 280 223 215 183 187 258 320 302 325 341 317 320 303 307 293 281 294 283 285 260 259 257 251
170 171 175 172 171 176 180 177 189 199 192 176 179 180 196 200 202 210 206 168 171 186 175 166 153 136 125 113 123 214 221 244 251 271 295 308 303 305 294 327 302 351 357 19 340 298 344 342 331 315 303 294 305 281 284 282 273 276 283 272 255 256
166 167 176 174 172 177 167 177 191 197 185 181 183 188 201 201 202 202 166 154 167 180 155 133 120 133 121 125 159 266 295 273 302 329 319 298 301 301 298 287 306 334 327 341 317 314 9 330 316 314 304 310 292 288 279 269 285 286 279 274 273 255
150 174 181 174 174 169 168 180 186 184 187 186 177 190 201 207 190 152 158 155 162 145 111 100 104 116 109 93 82 2 307 322 338 337 307 303 329 298 274 287 285 242 282 303 360 335 354 328 318 307 305 300 290 292 300 297 295 295 284 280 269 262
168 181 180 172 164 164 168 179 168 165 173 174 182 189 181 158 144 158 151 145 143 121 112 111 118 107 101 91 66 5 339 341 323 306 306 309 286 248 252 276 294 277 174 288 351 324 322 321 312 305 304 306 305 310 306 305 313 304 304 284 274 270
172 185 178 168 166 165 169 148 142 146 148 164 165 153 151 151 156 154 149 143 131 124 124 121 118 86 78 89 72 36 0 322 303 294 259 268 279 303 288 228 292 339 352 133 306 306 307 310 300 301 310 308 305 314 304 321 314 318 321 307 291 266
169 162 152 151 144 145 133 117 110 121 118 120 122 139 145 142 156 150 142 132 125 126 129 124 103 88 90 76 76 32 309 273 255 266 288 304 305 329 334 334 200 305 309 244 238 266 276 286 300 313 314 305 304 302 308 304 318 319 318 296 293 286
165 141 138 137 135 137 141 147 139 107 103 111 129 136 122 137 132 127 130 124 121 117 108 109 111 107 106 110 112 139 280 292 323 308 279 289 294 287 247 106 350 309 353 335 331 312 308 330 318 326 314 310 302 303 319 334 337 337 332 321 310 315
168 146 145 146 149 150 154 142 130 151 149 159 146 127 117 108 95 89 90 90 98 95 99 101 95 94 87 99 119 106 293 301 331 321 307 271 264 251 234 208 97 29 59 20 342 342 342 87 39 339 317 317 323 321 327 354 348 355 355 342 1 346
156 159 158 162 156 162 164 166 152 157 145 138 131 130 116 79 80 77 80 89 92 95 98 96 99 104 115 118 31 5 327 323 358 333 293 300 302 36 25 31 104 49 336 106 32 13 340 37 17 358 334 332 338 330 334 356 12 358 350 348 341 347
163 157 164 160 159 154 136 130 129 143 139 124 88 81 75 84 81 85 80 89 99 99 100 101 130 121 103 78 53 17 331 327 313 323 351 29 32 36 31 26 16 132 13 352 32 10 23 50 41 306 172 68 350 2 333 355 319 350 337 328 334 348
166 159 164 163 141 120 112 101 90 106 94 93 126 98 76 69 73 76 71 85 91 109 110 124 137 104 92 78 82 341 277 324 37 43 81 79 53 47 30 29 23 26 97 46 4 348 44 19 51 23 5 49 254 113 329 317 331 302 333 303 325 352
169 160 147 145 138 128 113 99 103 96 96 85 69 64 78 59 57 93 92 82 102 101 103 105 77 75 69 51 45 37 55 68 79 66 71 72 63 55 46 40 32 49 45 107 35 354 356 27 33 31 61 30 0 19 237 277 326 297 346 358 339 355
183 148 148 148 146 136 132 133 130 126 123 100 115 124 148 155 135 116 110 99 74 77 79 83 72 66 67 71 69 55 59 70 68 59 60 72 73 59 43 44 28 52 50 28 120 50 1 359 51 44 37 86 172 229 330 310 44 309 345 277 277 346
180 159 142 147 151 136 132 144 145 145 144 147 142 140 77 90 109 102 96 90 82 66 64 76 70 71 69 71 73 61 61 65 65 64 58 66 61 58 59 56 47 57 48 47 71 75 40 328 347 29 22 29 37 38 17 3 324 304 323 332 4 17
150 136 136 148 151 148 142 144 129 127 138 145 156 159 149 118 96 107 99 90 81 64 62 63 71 69 77 85 86 78 69 67 68 58 64 63 70 66 72 56 58 66 63 56 66 85 73 32 57 341 358 20 11 9 30 62 58 338 304 309 312 323
145 142 157 164 155 160 150 147 136 131 125 113 119 124 119 113 106 103 105 87 79 73 64 60 65 76 76 77 78 78 74 74 70 61 69 71 64 64 64 66 58 55 61 58 56 75 76 51 46 28 5 9 10 11 359 25 18 23 347 316 299 328
152 156 165 170 157 146 143 136 134 138 133 129 118 108 114 124 125 121 106 92 84 76 73 68 61 66 70 67 70 69 69 66 64 65 66 70 73 66 62 65 62 70 69 71 53 61 72 62 55 43 47 26 39 359 26 11 19 353 292 235 297 317
168 161 164 163 152 146 145 145 140 141 138 134 133 134 132 128 123 117 110 96 91 87 74 76 73 64 64 61 64 62 63 61 58 58 59 61 62 71 67 71 70 69 64 69 64 65 62 54 58 51 43 41 40 36 29 14 352 355 348 332 322 314
169 168 164 161 157 154 152 150 140 138 138 143 142 153 152 146 144 132 121 114 109 97 81 75 71 73 62 60 66 60 56 55 53 52 58 65 70 73 73 72 68 69 68 63 62 64 61 58 50 58 48 40 45 38 33 20 358 349 349 336 324 325
180 168 165 162 162 157 153 148 139 132 133 138 139 155 145 140 140 131 127 124 118 109 104 85 72 80 71 73 76 66 54 51 52 58 74 73 69 71 76 75 73 69 66 62 60 63 65 58 60 60 58 45 46 38 31 15 7 2 353 337 345 326
154 146 144 156 157 153 150 138 133 132 139 144 146 141 145 131 123 124 123 120 118 120 111 111 103 95 103 87 73 70 65 61 63 72 75 75 73 71 73 76 73 72 68 68 68 66 69 68 61 55 47 44 38 31 26 13 12 8 2 358 352 344
132 134 143 148 151 141 134 127 123 126 130 129 127 122 121 122 127 123 116 116 113 115 113 113 104 101 86 84 75 61 63 67 64 67 70 73 71 69 71 73 73 76 71 65 70 71 65 64 60 54 48 46 43 36 23 17 12 11 1 353 345 345
146 141 142 142 141 132 125 120 122 124 123 123 116 111 109 106 104 109 116 116 117 111 105 101 91 92 70 70 70 71 63 61 61 65 70 79 77 75 73 79 71 67 69 58 74 74 71 64 59 54 51 42 45 32 21 17 11 359 2 349 344 343
143 142 141 139 130 122 120 115 116 118 123 120 122 124 121 115 113 111 111 113 114 111 101 99 96 77 83 79 80 77 71 62 58 57 55 49 61 73 80 83 82 75 73 65 74 74 70 68 60 56 49 42 41 26 16 9 6 7 1 353 349 341